Meteo pe oră la Dziankowo

Astăzi, 9 Mai, Duminică

Timp Temperatura Precipitaţii Vânt Presiune Umiditate
00:00 +3°C° 0 mm 2 m/s 753 mmHg 82%
01:00 +2°C° 0 mm 3 m/s 753 mmHg 84%
02:00 +2°C° 0 mm 3 m/s 752 mmHg 85%
03:00 +2°C° 0 mm 3 m/s 752 mmHg 86%
04:00 +2°C° 0 mm 3 m/s 752 mmHg 87%
05:00 +4°C° 0 mm 4 m/s 752 mmHg 82%
06:00 +6°C° 0 mm 5 m/s 752 mmHg 76%
07:00 +8°C° 0 mm 5 m/s 752 mmHg 71%
08:00 +9°C° 0 mm 6 m/s 752 mmHg 67%
09:00 +11°C° 0 mm 6 m/s 751 mmHg 63%
10:00 +14°C° 0 mm 6 m/s 751 mmHg 59%
11:00 +15°C° 0 mm 6 m/s 751 mmHg 57%
12:00 +16°C° 0 mm 6 m/s 751 mmHg 55%
13:00 +17°C° 0 mm 6 m/s 751 mmHg 53%
14:00 +17°C° 0 mm 5 m/s 750 mmHg 56%
15:00 +19°C° 0 mm 5 m/s 750 mmHg 59%
16:00 +19°C° 0 mm 5 m/s 750 mmHg 62%
17:00 +18°C° 0 mm 4 m/s 750 mmHg 68%
18:00 +15°C° 0 mm 4 m/s 750 mmHg 75%
19:00 +14°C° 0 mm 4 m/s 750 mmHg 82%
20:00 +13°C° 0 mm 4 m/s 750 mmHg 83%
21:00 +12°C° 0 mm 4 m/s 750 mmHg 85%
22:00 +11°C° 0 mm 4 m/s 750 mmHg 87%
23:00 +10°C° 0 mm 4 m/s 750 mmHg 86%

Mâine, 10 Mai, Luni

Timp Temperatura Precipitaţii Vânt Presiune Umiditate
00:00 +10°C° 0 mm 4 m/s 750 mmHg 85%
01:00 +8°C° 0 mm 4 m/s 750 mmHg 83%
02:00 +8°C° 0 mm 4 m/s 750 mmHg 85%
03:00 +8°C° 0 mm 4 m/s 750 mmHg 87%
04:00 +8°C° 0 mm 3 m/s 749 mmHg 89%
05:00 +10°C° 0 mm 4 m/s 750 mmHg 83%
06:00 +12°C° 0 mm 5 m/s 750 mmHg 77%
07:00 +13°C° 0 mm 5 m/s 750 mmHg 72%
08:00 +15°C° 0 mm 5 m/s 749 mmHg 67%
09:00 +17°C° 0 mm 6 m/s 749 mmHg 63%
10:00 +20°C° 0 mm 6 m/s 749 mmHg 58%
11:00 +21°C° 0 mm 6 m/s 749 mmHg 57%
12:00 +22°C° 0 mm 6 m/s 749 mmHg 55%
13:00 +22°C° 0 mm 6 m/s 749 mmHg 53%
14:00 +23°C° 0 mm 6 m/s 749 mmHg 55%
15:00 +23°C° 0 mm 5 m/s 748 mmHg 57%
16:00 +23°C° 0 mm 5 m/s 748 mmHg 59%
17:00 +21°C° 0 mm 5 m/s 748 mmHg 66%
18:00 +20°C° 0 mm 4 m/s 748 mmHg 73%
19:00 +18°C° 0 mm 4 m/s 748 mmHg 80%
20:00 +17°C° 0 mm 4 m/s 749 mmHg 83%
21:00 +15°C° 0 mm 4 m/s 749 mmHg 85%
22:00 +14°C° 0 mm 3 m/s 749 mmHg 88%
23:00 +13°C° 0 mm 3 m/s 749 mmHg 89%

Poimâine, 11 Mai, Marţi

Timp Temperatura Precipitaţii Vânt Presiune Umiditate
00:00 +13°C° 0 mm 3 m/s 749 mmHg 90%
01:00 +12°C° 0 mm 3 m/s 749 mmHg 91%
02:00 +12°C° 0 mm 4 m/s 748 mmHg 91%
03:00 +11°C° 0 mm 4 m/s 748 mmHg 92%
04:00 +10°C° 0 mm 5 m/s 748 mmHg 92%
05:00 +12°C° 0 mm 5 m/s 748 mmHg 88%
06:00 +14°C° 0 mm 6 m/s 747 mmHg 84%
07:00 +15°C° 0 mm 7 m/s 747 mmHg 80%
08:00 +16°C° 0 mm 7 m/s 747 mmHg 75%
09:00 +18°C° 0 mm 7 m/s 747 mmHg 69%
10:00 +21°C° 0 mm 8 m/s 747 mmHg 64%
11:00 +22°C° 0 mm 8 m/s 747 mmHg 62%
12:00 +23°C° 0 mm 8 m/s 747 mmHg 60%
13:00 +26°C° 0 mm 8 m/s 747 mmHg 58%
14:00 +24°C° 0 mm 7 m/s 746 mmHg 60%
15:00 +24°C° 0 mm 7 m/s 746 mmHg 61%
16:00 +24°C° 0 mm 7 m/s 746 mmHg 63%
17:00 +22°C° 0 mm 7 m/s 746 mmHg 66%
18:00 +21°C° 0 mm 7 m/s 746 mmHg 69%
19:00 +18°C° 0 mm 8 m/s 746 mmHg 73%
20:00 +17°C° 0 mm 7 m/s 746 mmHg 73%
21:00 +16°C° 0 mm 7 m/s 746 mmHg 73%
22:00 +15°C° 0 mm 7 m/s 747 mmHg 73%
23:00 +14°C° 0 mm 7 m/s 746 mmHg 72%

12 Mai, Miercuri

Timp Temperatura Precipitaţii Vânt Presiune Umiditate
00:00 +12°C° 0 mm 7 m/s 746 mmHg 71%
01:00 +12°C° 0 mm 7 m/s 746 mmHg 70%
02:00 +11°C° 0 mm 6 m/s 746 mmHg 69%
03:00 +10°C° 0 mm 6 m/s 746 mmHg 69%
04:00 +10°C° 0 mm 6 m/s 745 mmHg 68%
05:00 +11°C° 0 mm 6 m/s 745 mmHg 70%
06:00 +12°C° 0 mm 7 m/s 745 mmHg 72%
07:00 +14°C° 0 mm 7 m/s 745 mmHg 75%
08:00 +15°C° 0 mm 8 m/s 745 mmHg 71%
09:00 +17°C° 0 mm 8 m/s 745 mmHg 67%
10:00 +19°C° 0 mm 9 m/s 745 mmHg 63%
11:00 +19°C° 0 mm 9 m/s 745 mmHg 61%
12:00 +21°C° 0 mm 9 m/s 744 mmHg 60%
13:00 +22°C° 0 mm 9 m/s 744 mmHg 58%
14:00 +21°C° 0 mm 8 m/s 744 mmHg 58%
15:00 +21°C° 0 mm 8 m/s 744 mmHg 59%
16:00 +20°C° 0 mm 8 m/s 744 mmHg 59%
17:00 +18°C° 0 mm 7 m/s 744 mmHg 63%
18:00 +17°C° 0 mm 7 m/s 744 mmHg 66%
19:00 +15°C° 0 mm 6 m/s 744 mmHg 70%
20:00 +14°C° 0 mm 6 m/s 744 mmHg 71%
21:00 +13°C° 0 mm 6 m/s 744 mmHg 73%
22:00 +12°C° 0 mm 5 m/s 744 mmHg 75%
23:00 +10°C° 0 mm 5 m/s 744 mmHg 75%

13 Mai, Joi

Timp Temperatura Precipitaţii Vânt Presiune Umiditate
00:00 +9°C° 0 mm 5 m/s 744 mmHg 76%
01:00 +9°C° 0 mm 5 m/s 743 mmHg 77%
02:00 +8°C° 0 mm 5 m/s 743 mmHg 80%
03:00 +7°C° 0 mm 5 m/s 743 mmHg 82%
04:00 +6°C° 0 mm 5 m/s 743 mmHg 85%
05:00 +7°C° 0 mm 5 m/s 743 mmHg 82%
06:00 +9°C° 0 mm 5 m/s 743 mmHg 78%
07:00 +10°C° 0 mm 6 m/s 742 mmHg 74%
08:00 +11°C° 0 mm 6 m/s 742 mmHg 69%
09:00 +13°C° 0 mm 6 m/s 742 mmHg 64%
10:00 +15°C° 0 mm 6 m/s 742 mmHg 59%
11:00 +15°C° 0 mm 5 m/s 742 mmHg 57%
12:00 +16°C° 0 mm 5 m/s 742 mmHg 55%
13:00 +17°C° 0 mm 5 m/s 741 mmHg 53%
14:00 +16°C° 0 mm 5 m/s 741 mmHg 57%
15:00 +15°C° 0 mm 5 m/s 741 mmHg 61%
16:00 +15°C° 0 mm 5 m/s 741 mmHg 65%
17:00 +14°C° 0 mm 4 m/s 742 mmHg 68%
18:00 +13°C° 0 mm 4 m/s 742 mmHg 72%
19:00 +12°C° 0 mm 3 m/s 742 mmHg 75%
20:00 +12°C° 0 mm 3 m/s 742 mmHg 77%
21:00 +12°C° 0 mm 3 m/s 742 mmHg 78%
22:00 +12°C° 0 mm 2 m/s 742 mmHg 79%
23:00 +12°C° 0 mm 2 m/s 742 mmHg 81%

14 Mai, Vineri

Timp Temperatura Precipitaţii Vânt Presiune Umiditate
00:00 +12°C° 0 mm 2 m/s 742 mmHg 82%
01:00 +10°C° 0 mm 2 m/s 742 mmHg 83%
02:00 +10°C° 0 mm 2 m/s 742 mmHg 85%
03:00 +9°C° 0 mm 2 m/s 742 mmHg 86%
04:00 +9°C° 0 mm 2 m/s 743 mmHg 88%
05:00 +10°C° 0 mm 2 m/s 743 mmHg 84%
06:00 +12°C° 0 mm 2 m/s 743 mmHg 79%
07:00 +13°C° 0 mm 2 m/s 743 mmHg 75%
08:00 +14°C° 0 mm 2 m/s 743 mmHg 70%
09:00 +15°C° 0 mm 2 m/s 743 mmHg 65%
10:00 +17°C° 0 mm 3 m/s 744 mmHg 60%
11:00 +17°C° 0.2 mm 3 m/s 744 mmHg 59%
12:00 +18°C° 0.2 mm 3 m/s 744 mmHg 57%
13:00 +18°C° 0.2 mm 3 m/s 744 mmHg 56%
14:00 +18°C° 0.4 mm 3 m/s 744 mmHg 61%
15:00 +17°C° 0.4 mm 3 m/s 744 mmHg 66%
16:00 +16°C° 0.4 mm 3 m/s 744 mmHg 71%
17:00 +14°C° 0.3 mm 3 m/s 745 mmHg 75%
18:00 +13°C° 0.3 mm 3 m/s 745 mmHg 80%
19:00 +13°C° 0.3 mm 2 m/s 745 mmHg 84%
20:00 +12°C° 0.2 mm 2 m/s 745 mmHg 86%
21:00 +12°C° 0.2 mm 2 m/s 746 mmHg 89%
22:00 +10°C° 0.2 mm 2 m/s 746 mmHg 92%
23:00 +10°C° 0.5 mm 2 m/s 746 mmHg 92%
Arată mai mult

Formular de consimțământ

Meteoprog și furnizorii noștri de servicii pot stoca și accesa date personale, precum cookies, identificatori de dispozitiv sau alte tehnologii similare pe dispozitivul dumneavoastră și procesa astfel de date pentru a personaliza conținutul și reclamele, dar și pentru a oferi caracteristici de social media și pentru a analiza traficul.

  • Stocarea și/sau accesarea informațiilor pe dispozitivul dumneavoastră

    Cookies, identificatori de dispozitiv sau alte informații pot fi stocate sau accesate pe dispozitiv în scopurile indicate mai sus.

  • Reclame și conținut personalizat, evaluarea reclamelor și a conținutului, informații despre audiențe și dezvoltarea produselor

    Reclamele și conținutul pot fi personalizate pe baza unui profil. Pot fi adăugate date suplimentare pentru a personaliza mai bine reclamele și conținutul. Performanța reclamelor și conținutului poate fi măsurată. Pot fi obținute informații despre utilizatorii care au văzut reclamele și conținutul. Aceste date pot fi utilizate pentru a dezvolta sau îmbunătăți experiența utilizatorilor, sistemele și software-ul.

Dând clic pe ‘Sunt de acord’, permiteți utilizarea cookie-urilor menționate, a identificatorilor de dispozitiv, balizelor web sau altor tehnologii similare. Setările pot fi modificate din browser-ul dispozitivului dumneavoastră.

În anumite scopuri, interesele legitime pot prima asupra consimțământului. Puteți citi mai multe informații în acest sens în Politica privind Confidențialitatea Datelor și Cookie.